Weather History for KHSI - October, 2012

Change the Weather History Date:

Tuesday, October 23, 2012

  Actual Average Record
Temperature  
Mean Temperature 53 °F 50 °F  
Max Temperature 63 °F 61 °F 90 °F (1927)
Min Temperature 43 °F 38 °F 15 °F (1917)
Degree Days  
Heating Degree Days 12 16  
Month to date heating degree days 293 257  
Since 1 July heating degree days 380 353  
Cooling Degree Days 0 0  
Month to date cooling degree days 0 11  
Year to date cooling degree days 1339 1074  
Growing Degree Days 3 (Base 50)    
Moisture  
Dew Point 50 °F    
Average Humidity 86    
Maximum Humidity 100    
Minimum Humidity 72    
Precipitation  
Precipitation 0.01 in 0.06 in 1.08 in (1906)
Month to date precipitation 1.01 1.59  
Year to date precipitation 17.67 24.81  
Snow  
Snow 0.00 in 0.10 in 3.10 in (2002)
Month to date snowfall 0.0 0.6  
Since 1 July snowfall 0.0 0.8  
Since 1 September snowfall 0.0 0.8  
Snow Depth 0.00 in    
Sea Level Pressure  
Sea Level Pressure 29.74 in    
Wind  
Wind Speed 4 mph (ESE)    
Max Wind Speed 13 mph    
Max Gust Speed 14 mph    
Visibility 3 miles    
Events Fog    
T = Trace of Precipitation, MM = Missing Value Source: NWS Daily Summary

Daily Weather History Graph

Daily Weather History Graph

Search for Another Location

Airport or City:

Trip Planner

Search our weather history database for the weather conditions in past years. The results will help you decide how hot, cold, wet, or windy it might be!

Date:

Astronomy

Oct. 23, 2012 Rise Set
Actual Time 7:54 AM CDT 6:41 PM CDT
Civil Twilight 7:26 AM CDT 7:09 PM CDT
Nautical Twilight 6:54 AM CDT 7:40 PM CDT
Astronomical Twilight 6:22 AM CDT 8:12 PM CDT
Moon 3:27 PM CDT 1:46 AM CDT
Length of Visible Light 11h 42m
Length of Day
10h 47m
Waxing Gibbous, 67% of the Moon is Illuminated
Oct 23
Waxing Gibbous
Oct 29
Full
Nov 6
Last Quarter
Nov 13
New
Nov 20
First Quarter

Hourly Weather History & Observations

Time (CDT) Temp. Windchill Dew Point Humidity Pressure Visibility Wind Dir Wind Speed Gust Speed Precip Events Conditions
12:01 AM 50.0 °F - 50.0 °F 100% 29.81 in 2.0 mi Calm Calm - N/A   Overcast
12:32 AM 50.0 °F - 48.2 °F 94% 29.80 in 2.5 mi Calm Calm - N/A   Overcast
12:36 AM 50.0 °F - 48.2 °F 94% 29.80 in 2.5 mi Calm Calm - N/A   Overcast
12:53 AM 50.0 °F - 48.2 °F 94% 29.79 in 2.5 mi Calm Calm - N/A   Overcast
12:58 AM 50.0 °F - 48.2 °F 94% 29.79 in 3.0 mi Calm Calm - N/A   Overcast
1:19 AM 50.0 °F - 48.2 °F 94% 29.79 in 2.5 mi South 3.5 mph - N/A   Overcast
1:29 AM 50.0 °F - 48.2 °F 94% 29.78 in 1.8 mi Calm Calm - N/A   Overcast
1:43 AM 50.0 °F - 48.2 °F 94% 29.78 in 2.0 mi South 3.5 mph - N/A   Overcast
1:53 AM 50.0 °F - 48.9 °F 96% 29.78 in 2.5 mi South 3.5 mph - N/A   Overcast
2:06 AM 50.0 °F - 50.0 °F 100% 29.77 in 3.0 mi SSE 3.5 mph - N/A   Overcast
2:53 AM 51.1 °F - 50.0 °F 96% 29.77 in 3.0 mi Calm Calm - N/A   Overcast
3:24 AM 51.8 °F - 50.0 °F 94% 29.75 in 3.0 mi Calm Calm - N/A   Overcast
3:42 AM 51.8 °F - 50.0 °F 94% 29.75 in 2.5 mi Calm Calm - N/A   Overcast
3:53 AM 51.1 °F - 50.0 °F 96% 29.75 in 3.0 mi SSE 4.6 mph - N/A   Overcast
4:53 AM 51.1 °F - 50.0 °F 96% 29.74 in 2.5 mi SE 3.5 mph - N/A   Overcast
5:40 AM 51.8 °F - 50.0 °F 94% 29.73 in 1.2 mi East 4.6 mph - N/A   Overcast
5:53 AM 51.1 °F - 50.0 °F 96% 29.73 in 0.8 mi SE 5.8 mph - N/A   Overcast
6:53 AM 50.0 °F - 50.0 °F 100% 29.74 in 0.2 mi East 3.5 mph - N/A Fog Fog
7:53 AM 50.0 °F - 50.0 °F 100% 29.74 in 0.2 mi East 4.6 mph - N/A Fog Fog
8:53 AM 51.1 °F - 50.0 °F 96% 29.73 in 0.5 mi East 5.8 mph - 0.01 in Fog Fog
9:53 AM 51.1 °F - 51.1 °F 100% 29.73 in 0.2 mi East 5.8 mph - N/A Fog Fog
10:53 AM 52.0 °F - 52.0 °F 100% 29.73 in 0.2 mi East 3.5 mph - N/A Fog Fog
11:53 AM 54.0 °F - 53.1 °F 97% 29.70 in 0.5 mi ESE 6.9 mph - N/A Fog Fog
12:53 PM 55.0 °F - 54.0 °F 96% 29.71 in 1.8 mi Calm Calm - N/A   Overcast
1:00 PM 55.4 °F - 53.6 °F 94% 29.71 in 2.5 mi SSE 3.5 mph - N/A   Overcast
1:11 PM 55.4 °F - 53.6 °F 94% 29.70 in 3.0 mi Calm Calm - N/A   Overcast
1:53 PM 57.9 °F - 55.0 °F 90% 29.68 in 5.0 mi SSW 4.6 mph - N/A   Overcast
2:16 PM 60.8 °F - 55.4 °F 82% 29.69 in 7.0 mi Variable 3.5 mph - N/A   Overcast
2:53 PM 60.1 °F - 55.0 °F 83% 29.69 in 7.0 mi West 8.1 mph - N/A   Overcast
3:35 PM 62.6 °F - 55.4 °F 77% 29.70 in 9.0 mi SW 3.5 mph - N/A   Overcast
3:53 PM 62.1 °F - 54.0 °F 75% 29.69 in 10.0 mi Variable 4.6 mph - N/A   Overcast
4:53 PM 62.1 °F - 53.1 °F 72% 29.68 in 10.0 mi WSW 5.8 mph - N/A   Overcast
5:53 PM 62.6 °F - 53.6 °F 72% 29.71 in 10.0 mi West 4.6 mph - N/A   Mostly Cloudy
6:05 PM 60.8 °F - 51.8 °F 72% 29.71 in 10.0 mi WNW 5.8 mph - N/A   Scattered Clouds
6:53 PM 53.1 °F - 48.9 °F 86% 29.72 in 8.0 mi NNE 4.6 mph - N/A   Clear
7:53 PM 51.1 °F - 48.0 °F 89% 29.74 in 7.0 mi Calm Calm - N/A   Clear
8:53 PM 46.0 °F - 45.0 °F 96% 29.76 in 6.0 mi Calm Calm - N/A   Clear
9:53 PM 48.0 °F - 46.9 °F 96% 29.76 in 5.0 mi NE 3.5 mph - N/A   Clear
10:51 PM 46.4 °F 44.3 °F 44.6 °F 93% 29.75 in 1.8 mi NNE 4.6 mph - N/A   Clear
10:53 PM 46.0 °F 44.8 °F 45.0 °F 96% 29.76 in 1.8 mi NE 3.5 mph - N/A   Clear
11:05 PM 46.4 °F - 44.6 °F 93% 29.76 in 2.0 mi Calm Calm - N/A   Clear
11:12 PM 44.6 °F 43.1 °F 44.6 °F 100% 29.76 in 1.2 mi NNE 3.5 mph - N/A   Clear
11:20 PM 44.6 °F - 42.8 °F 93% 29.76 in 3.0 mi Calm Calm - N/A   Clear
11:22 PM 46.4 °F - 44.6 °F 93% 29.76 in 2.0 mi Calm Calm - N/A   Partly Cloudy
11:24 PM 46.4 °F 45.2 °F 44.6 °F 93% 29.76 in 0.8 mi NNE 3.5 mph - N/A   Mist
11:53 PM 45.0 °F - 45.0 °F 100% 29.76 in 0.2 mi Calm Calm - N/A Fog Fog